Regional Weather Roundup
Issued by NWS

Home | Current Version | Previous Version | Graphics & Text | Print | Product List | Glossary On
Versions: 1 2 3 4 5 6 7 8 9 10 11 12 13 14 15 16 17 18 19 20 21 22 23 24 25 26 27 28 29 30 31 32 33 34 35 36 37 38 39 40 41 42 43 44 45 46 47 48 49 50
000
ASUS45 KTFX 191310
RWRMT
MONTANA REGIONAL WEATHER ROUNDUP
NATIONAL WEATHER SERVICE GREAT FALLS MT
700 AM MDT SAT AUG 19 2017

NOTE: "FAIR" INDICATES FEW OR NO CLOUDS BELOW 12000 FEET WITH NO
SIGNIFICANT WEATHER AND/OR OBSTRUCTIONS TO VISIBILITY.

MTZ001>007-043-191400-
WEST OF THE DIVIDE

CITY           SKY/WX    TMP DP  RH WIND       PRES   REMARKS
KALISPELL      CLEAR     45  39  79 N3        29.95R
MISSOULA       CLEAR     51  37  58 N5        30.02R
BUTTE          PTCLDY    48  31  51 CALM      30.12R
MULLAN PASS    CLEAR     50  37  61 SW7       30.11S
ANACONDA         N/A     59  28  31 CALM      30.09R
DEER LODGE       N/A     55  34  44 W5        30.09S
EUREKA           N/A     55  37  50 MISG      29.91R
HAMILTON         N/A     61  36  39 CALM      30.03R
LIBBY            N/A     50  37  62 CALM      29.93R
PLAINS           N/A     50  39  65 CALM      29.98S
RONAN            N/A     52  38  58 CALM      30.03S
$$

MTZ008-052>055-191400-
SOUTHWEST MONTANA

CITY           SKY/WX    TMP DP  RH WIND       PRES   REMARKS
BOZEMAN        PTCLDY    49  37  63 SE6       30.05R
DILLON         PTCLDY    52  35  52 SW14      30.07R
W YELLOWSTONE  CLOUDY    36  34  93 CALM      30.21S
ENNIS          CLOUDY    50  37  62 SE7       30.14R
THREE FORKS      N/A     42  35  76 CALM      30.03R
TWIN BRIDGES     N/A     53  33  46 CALM      30.06R
$$

MTZ009-010-012-014-046-048-049-054-191400-
EAST SLOPES AND CENTRAL MONTANA

CITY           SKY/WX    TMP DP  RH WIND       PRES   REMARKS
CUT BANK       CLEAR     48  41  76 N13       30.03R
GREAT FALLS    CLOUDY    57  42  57 N14       30.00R
MALMSTROM AFB  CLOUDY    60  42  51 N13       30.00R
HELENA         CLOUDY    69  31  24 SW5       30.00F HAZE
AUGUSTA          N/A     53  44  72 N24       30.02R
BOWMANS CRNR     N/A     61  24  25 S3        30.00R
CHOTEAU          N/A     52  46  82 N7        30.05R
FAIRFIELD        N/A     53  44  72 N21G26    30.00R
POWER            N/A     53  44  72 N13       30.00R
RAYNESFORD       N/A     64  29  27 NW7       30.00R
ULM              N/A     60  29  30 N9        29.99R
$$

MTZ011-013-016-021-045-047-050-051-191400-
NORTH CENTRAL MONTANA

CITY           SKY/WX    TMP DP  RH WIND       PRES   REMARKS
HAVRE          CLOUDY    56  45  66 NW13      29.95R
LEWISTOWN      CLOUDY    66  29  24 W6        29.96R
N BAR RANCH      N/A     64  27  24 CALM      29.99R
CHINOOK          N/A     59  46  63 W10G17    29.92R
DENTON           N/A     67  30  24 NW20G26   29.90R
GEYSER           N/A     62  29  28 W14       29.97R
GRASS RANGE      N/A     65  28  25 W14       29.91R
JUDITH GAP       N/A     65  31  28 W13       29.99
WINIFRED         N/A     64  30  28 N8        29.94R
$$

MTZ017>020-022>027-061-062-191400-
NORTHEAST MONTANA

CITY           SKY/WX    TMP DP  RH WIND       PRES   REMARKS
GLASGOW        CLOUDY    58  39  49 W6        29.77R
JORDAN           N/A     59  31  34 NW8       29.82S
SIDNEY         CLOUDY    57  52  83 SW8       29.76R
WOLF POINT     PTCLDY    53  45  74 W5        29.75R
MALTA          CLEAR     57  39  51 NW7       29.84R
PLENTYWOOD       N/A     61  52  72 CALM      29.73S
POPLAR           N/A     57  48  72 CALM      29.74S
SCOBEY           N/A     59  45  59 CALM      29.75R
$$

MTZ028>42-056>058-191400-
SOUTHCENTRAL AND SOUTHEAST MONTANA

CITY           SKY/WX    TMP DP  RH WIND       PRES   REMARKS
BAKER          PTCLDY    52  44  74 CALM      29.83F
BILLINGS       MOCLDY    66  30  26 SW12      29.94R
LIVINGSTON     PTCLDY    49  35  58 SW5       30.03R
MILES CITY     MOCLDY    57  36  45 SW7       29.83R
BIG TIMBER     CLEAR     66  30  26 W20       30.02R
EKALAKA          N/A     71  39  31 SW8       29.87R
HARLOWTON      MOCLDY    64  29  27 MISG      29.98R
LAUREL           N/A     61  33  34 SW1       29.95R
$$

REGIONAL REPORTS...DAKOTAS

CITY           SKY/WX    TMP DP  RH WIND       PRES   REMARKS
WILLISTON      CLEAR     63  52  67 S5        29.74S
MINOT          SUNNY     68  54  60 CALM      29.76S
DICKINSON      SUNNY     59  52  77 S9        29.79S
BEACH            N/A     57  46  67 SW8       29.82F
CROSBY           N/A     64  52  63 S17       29.71F
TIOGA            N/A     57  57 100 CALM      29.78S
WATFORD CITY     N/A     59  52  77 CALM      29.75S
BISMARCK       SUNNY     61  58  90 SE6       29.84F
GRAND FORKS    SUNNY     60  57  89 SW7       29.83S
FARGO          SUNNY     61  59  93 S6        29.88S
BUFFALO SD       N/A     57  47  69 SW3       29.80S
RAPID CITY     CLEAR     58  51  78 SE5       29.89S
$$

REGIONAL REPORTS...WYOMING/IDAHO/WASHINGTON

CITY           SKY/WX    TMP DP  RH WIND       PRES   REMARKS
GILLETTE       CLEAR     68  36  30 CALM      29.96S
SHERIDAN       CLEAR     54  43  66 S3        29.98R
BUFFALO WY     CLEAR     69  30  23 NW8       30.04R
CODY           CLEAR     66  31  27 CALM      30.06R
YELLOWSTONE LA   N/A     36  36 100 CALM      30.29S
IDAHO FALLS    CLOUDY    51  36  56 CALM      30.09R
SALMON         CLOUDY    51  42  71 CALM      30.07S
BOISE          CLEAR     60  31  33 E5        30.01R
SPOKANE        MOCLDY    54  45  71 S6        30.00R
$$

REGIONAL REPORTS...ALBERTA

CITY           SKY/WX    TMP DP  RH WIND       PRES   REMARKS
EDMONTON       CLEAR     46  39  76 W9        29.89R
CALGARY        CLOUDY    54  34  47 W7        30.00R
LETHBRIDGE     MOCLDY    43  39  87 W8        30.02S
MEDICINE HAT   PTCLDY    48  43  81 W7        29.95R
$$

REGIONAL REPORTS...SASKATCHEWAN

CITY           SKY/WX    TMP DP  RH WIND       PRES   REMARKS
SWIFT CURRENT  CLEAR     54  45  71 NW21G26   29.82R
REGINA         PTCLDY    59  48  67 SE7       29.65R
SASKATOON      MOCLDY    59  50  72 NW18G29   29.69R
$$



USA.gov is the U.S. government's official web portal to all federal, state and local government web resources and services.